{"data":{"norad_id":55608,"intl_designator":"2023-020AR","name":"STARLINK-5726","alt_names":[],"object_type":"PAYLOAD","status":"ACTIVE","operator":null,"country":"US","launch_date":"2023-02-12","launch_site_code":"AFETR","launch_vehicle":null,"mission":null,"orbit_class":"UNKNOWN","rcs_meters":null,"size_class":null,"mass_kg":null,"dimensions":null,"purposes":["comms"],"wikipedia_slug":null,"has_3d_model":false,"image_url":null,"decayed_at":null,"tle_current":{"epoch":"2026-05-25T02:27:08.420256Z","epoch_age_seconds":63453,"freshness":"FRESH","line1":"1 55608U 23020AR  26145.10218079 -.00000101  00000+0  58800-5 0  9995","line2":"2 55608  43.0052 282.8598 0002168 282.1085  77.9524 15.27576863180727","mean_motion":15.27576863,"eccentricity":0.0002168,"inclination_deg":43.0052,"raan_deg":282.8598,"arg_perigee_deg":282.1085,"mean_anomaly_deg":77.9524,"bstar":5.88e-6,"rev_number":18072,"period_min":94.266942297882,"perigee_km":481.57098218016,"apogee_km":484.54599654435,"semimajor_km":6861.1954893623,"source":"CELESTRAK","updated_at":"2026-05-25T13:38:17.842833Z"}}}